When you browse on this site, cookies collect data to enhance your experience and personalize the content and advertising you see.
Visit our Privacy Policy to learn more. By continuing to use the site, you agree to this use of cookies and data.
  • în România
  • Lista ţărilor
  • Pe 7 zile
  • Temperatura apei
  • Meteo pe hartă
  • Widget-uri
  • user-avatar
    Intrare

    Meteo pe oră la Serovo

    Astăzi, 17 Octombrie, Joi

    Timp Temperatura Precipitaţii Vânt Presiune Umiditate
    00:00 +10°C° 0 mm 3 m/s 741 mmHg 83%
    01:00 +10°C° 0 mm 3 m/s 741 mmHg 84%
    02:00 +10°C° 0 mm 3 m/s 741 mmHg 86%
    03:00 +10°C° 0 mm 3 m/s 741 mmHg 87%
    04:00 +10°C° 0 mm 3 m/s 740 mmHg 88%
    05:00 +10°C° 0 mm 3 m/s 740 mmHg 90%
    06:00 +10°C° 0.1 mm 3 m/s 740 mmHg 90%
    07:00 +10°C° 0.1 mm 3 m/s 740 mmHg 91%
    08:00 +10°C° 0 mm 3 m/s 740 mmHg 85%
    09:00 +11°C° 0 mm 3 m/s 740 mmHg 86%
    10:00 +12°C° 0 mm 4 m/s 740 mmHg 86%
    11:00 +12°C° 0 mm 4 m/s 740 mmHg 87%
    12:00 +13°C° 0 mm 4 m/s 740 mmHg 82%
    13:00 +13°C° 0 mm 4 m/s 740 mmHg 77%
    14:00 +13°C° 0 mm 4 m/s 740 mmHg 72%
    15:00 +12°C° 0.6 mm 4 m/s 740 mmHg 78%
    16:00 +11°C° 0.6 mm 3 m/s 740 mmHg 85%
    17:00 +10°C° 0.6 mm 3 m/s 740 mmHg 92%
    18:00 +10°C° 0.2 mm 3 m/s 740 mmHg 93%
    19:00 +10°C° 0.2 mm 3 m/s 741 mmHg 94%
    20:00 +10°C° 0.2 mm 3 m/s 741 mmHg 94%
    21:00 +10°C° 0 mm 2 m/s 741 mmHg 95%
    22:00 +9°C° 0 mm 2 m/s 741 mmHg 96%
    23:00 +9°C° 0 mm 2 m/s 742 mmHg 97%

    Mâine, 18 Octombrie, Vineri

    Timp Temperatura Precipitaţii Vânt Presiune Umiditate
    00:00 +9°C° 0 mm 2 m/s 742 mmHg 97%
    01:00 +10°C° 0 mm 2 m/s 743 mmHg 97%
    02:00 +10°C° 0 mm 2 m/s 743 mmHg 97%
    03:00 +10°C° 0 mm 2 m/s 743 mmHg 96%
    04:00 +10°C° 0 mm 2 m/s 743 mmHg 95%
    05:00 +10°C° 0 mm 3 m/s 743 mmHg 94%
    06:00 +10°C° 0 mm 3 m/s 743 mmHg 95%
    07:00 +10°C° 0 mm 2 m/s 744 mmHg 95%
    08:00 +9°C° 0 mm 2 m/s 744 mmHg 95%
    09:00 +10°C° 0 mm 2 m/s 744 mmHg 92%
    10:00 +12°C° 0 mm 2 m/s 744 mmHg 89%
    11:00 +13°C° 0 mm 2 m/s 745 mmHg 86%
    12:00 +13°C° 0 mm 2 m/s 745 mmHg 87%
    13:00 +13°C° 0 mm 2 m/s 745 mmHg 87%
    14:00 +13°C° 0 mm 2 m/s 744 mmHg 88%
    15:00 +12°C° 0 mm 2 m/s 745 mmHg 90%
    16:00 +12°C° 0 mm 2 m/s 745 mmHg 92%
    17:00 +12°C° 0 mm 2 m/s 745 mmHg 95%
    18:00 +12°C° 0 mm 2 m/s 745 mmHg 95%
    19:00 +11°C° 0 mm 1 m/s 745 mmHg 96%
    20:00 +11°C° 0 mm 1 m/s 745 mmHg 96%
    21:00 +11°C° 0 mm 1 m/s 745 mmHg 96%
    22:00 +10°C° 0 mm 2 m/s 745 mmHg 95%
    23:00 +10°C° 0 mm 2 m/s 745 mmHg 95%

    Poimâine, 19 Octombrie, Sâmbătă

    Timp Temperatura Precipitaţii Vânt Presiune Umiditate
    00:00 +10°C° 0 mm 2 m/s 745 mmHg 95%
    01:00 +9°C° 0 mm 2 m/s 745 mmHg 95%
    02:00 +9°C° 0 mm 2 m/s 745 mmHg 95%
    03:00 +9°C° 0 mm 2 m/s 745 mmHg 95%
    04:00 +9°C° 0 mm 2 m/s 745 mmHg 94%
    05:00 +9°C° 0 mm 2 m/s 745 mmHg 94%
    06:00 +9°C° 0 mm 2 m/s 745 mmHg 93%
    07:00 +10°C° 0 mm 2 m/s 745 mmHg 92%
    08:00 +10°C° 0 mm 2 m/s 745 mmHg 91%
    09:00 +12°C° 0 mm 2 m/s 745 mmHg 89%
    10:00 +11°C° 0 mm 3 m/s 745 mmHg 86%
    11:00 +12°C° 0 mm 3 m/s 745 mmHg 84%
    12:00 +12°C° 0 mm 3 m/s 745 mmHg 83%
    13:00 +13°C° 0 mm 3 m/s 745 mmHg 81%
    14:00 +13°C° 0 mm 3 m/s 745 mmHg 80%
    15:00 +13°C° 0 mm 3 m/s 745 mmHg 84%
    16:00 +13°C° 0 mm 2 m/s 745 mmHg 88%
    17:00 +12°C° 0 mm 2 m/s 745 mmHg 92%
    18:00 +12°C° 0 mm 2 m/s 745 mmHg 93%
    19:00 +10°C° 0 mm 2 m/s 745 mmHg 94%
    20:00 +10°C° 0 mm 2 m/s 745 mmHg 95%
    21:00 +10°C° 0 mm 2 m/s 745 mmHg 95%
    22:00 +9°C° 0 mm 2 m/s 745 mmHg 95%
    23:00 +10°C° 0 mm 1 m/s 745 mmHg 95%

    20 Octombrie, Duminică

    Timp Temperatura Precipitaţii Vânt Presiune Umiditate
    00:00 +9°C° 0 mm 2 m/s 745 mmHg 95%
    01:00 +9°C° 0 mm 2 m/s 745 mmHg 95%
    02:00 +9°C° 0 mm 2 m/s 745 mmHg 94%
    03:00 +10°C° 0 mm 2 m/s 745 mmHg 95%
    04:00 +10°C° 0 mm 2 m/s 745 mmHg 95%
    05:00 +10°C° 0 mm 2 m/s 745 mmHg 96%
    06:00 +10°C° 0 mm 2 m/s 745 mmHg 95%
    07:00 +10°C° 0 mm 2 m/s 745 mmHg 95%
    08:00 +12°C° 0 mm 2 m/s 745 mmHg 94%
    09:00 +12°C° 0 mm 2 m/s 745 mmHg 92%
    10:00 +13°C° 0 mm 2 m/s 745 mmHg 90%
    11:00 +13°C° 0 mm 2 m/s 745 mmHg 88%
    12:00 +14°C° 0 mm 2 m/s 745 mmHg 86%
    13:00 +14°C° 0 mm 2 m/s 745 mmHg 84%
    14:00 +15°C° 0 mm 2 m/s 745 mmHg 82%
    15:00 +14°C° 0 mm 2 m/s 745 mmHg 86%
    16:00 +13°C° 0 mm 1 m/s 745 mmHg 90%
    17:00 +12°C° 0 mm 1 m/s 745 mmHg 93%
    18:00 +12°C° 0 mm 1 m/s 745 mmHg 94%
    19:00 +12°C° 0 mm 1 m/s 745 mmHg 95%
    20:00 +11°C° 0 mm 1 m/s 745 mmHg 96%
    21:00 +10°C° 0 mm 2 m/s 745 mmHg 96%
    22:00 +10°C° 0 mm 2 m/s 745 mmHg 96%
    23:00 +10°C° 0 mm 2 m/s 745 mmHg 96%

    21 Octombrie, Luni

    Timp Temperatura Precipitaţii Vânt Presiune Umiditate
    00:00 +10°C° 0 mm 2 m/s 745 mmHg 96%
    01:00 +10°C° 0 mm 2 m/s 745 mmHg 96%
    02:00 +10°C° 0 mm 2 m/s 744 mmHg 96%
    03:00 +10°C° 0 mm 2 m/s 744 mmHg 96%
    04:00 +9°C° 0 mm 2 m/s 744 mmHg 96%
    05:00 +9°C° 0 mm 2 m/s 744 mmHg 96%
    06:00 +9°C° 0 mm 2 m/s 744 mmHg 96%
    07:00 +10°C° 0 mm 2 m/s 744 mmHg 95%
    08:00 +10°C° 0 mm 2 m/s 744 mmHg 95%
    09:00 +12°C° 0 mm 2 m/s 744 mmHg 91%
    10:00 +13°C° 0 mm 2 m/s 744 mmHg 88%
    11:00 +14°C° 0 mm 2 m/s 744 mmHg 85%
    12:00 +14°C° 0 mm 2 m/s 744 mmHg 84%
    13:00 +15°C° 0 mm 2 m/s 744 mmHg 83%
    14:00 +15°C° 0 mm 2 m/s 744 mmHg 82%
    15:00 +14°C° 0 mm 1 m/s 744 mmHg 86%
    16:00 +13°C° 0 mm 1 m/s 744 mmHg 90%
    17:00 +12°C° 0 mm 1 m/s 744 mmHg 94%
    18:00 +12°C° 0 mm 1 m/s 744 mmHg 95%
    19:00 +12°C° 0 mm 1 m/s 744 mmHg 95%
    20:00 +10°C° 0 mm 0 m/s 744 mmHg 96%
    21:00 +10°C° 0 mm 0 m/s 743 mmHg 96%
    22:00 +10°C° 0 mm 0 m/s 743 mmHg 96%
    23:00 +10°C° 0 mm 0 m/s 743 mmHg 96%

    22 Octombrie, Marţi

    Timp Temperatura Precipitaţii Vânt Presiune Umiditate
    00:00 +11°C° 0 mm 1 m/s 742 mmHg 97%
    01:00 +11°C° 0 mm 1 m/s 742 mmHg 97%
    02:00 +11°C° 0 mm 1 m/s 742 mmHg 97%
    03:00 +11°C° 0 mm 1 m/s 741 mmHg 97%
    04:00 +11°C° 0 mm 1 m/s 741 mmHg 97%
    05:00 +11°C° 0 mm 1 m/s 741 mmHg 97%
    06:00 +11°C° 0.1 mm 1 m/s 741 mmHg 97%
    07:00 +11°C° 0.1 mm 1 m/s 741 mmHg 97%
    08:00 +11°C° 0.1 mm 1 m/s 740 mmHg 97%
    09:00 +11°C° 0.1 mm 1 m/s 740 mmHg 97%
    10:00 +11°C° 0.1 mm 1 m/s 741 mmHg 96%
    11:00 +12°C° 0.1 mm 1 m/s 741 mmHg 95%
    12:00 +10°C° 1 mm 2 m/s 741 mmHg 95%
    13:00 +10°C° 1 mm 2 m/s 741 mmHg 96%
    14:00 +10°C° 1 mm 3 m/s 741 mmHg 96%
    15:00 +9°C° 1.3 mm 3 m/s 741 mmHg 94%
    16:00 +9°C° 1.3 mm 3 m/s 742 mmHg 93%
    17:00 +7°C° 1.3 mm 4 m/s 743 mmHg 91%
    18:00 +8°C° 0 mm 3 m/s 743 mmHg 90%
    19:00 +7°C° 0 mm 3 m/s 744 mmHg 90%
    20:00 +5°C° 0 mm 3 m/s 745 mmHg 90%
    21:00 +6°C° 0 mm 2 m/s 746 mmHg 92%
    22:00 +5°C° 0 mm 2 m/s 746 mmHg 94%
    23:00 +6°C° 0 mm 1 m/s 747 mmHg 97%
    Arată mai mult